Location: Chassagnes
(44.4047°N, 4.1657°E)
Time: 12:59:29
(UTC+00:00)

FALCON 9 DEB - Pass Details

Date: 27 October 2020
Orbit: 378 x 397 km, 53.0° (Epoch: 23 November)

Event Time Altitude Azimuth Distance (km) Brightness Sun altitude
Rises 17:06:55 0° 229° (SW) 2,297 8.0 -5.6°
Reaches altitude 10° 17:08:59 10° 227° (SW) 1,440 6.8 -5.9°
Maximum altitude 17:12:11 69° 144° (SE) 427 3.0 -6.5°
Drops below altitude 10° 17:15:24 10° 60° (ENE) 1,438 5.2 -7.1°
Enters shadow 17:15:41 - 59° (ENE) 1,558 5.3 -7.1°
